Regional Weather Roundup
Issued by NWS

Home | Current Version | Previous Version | Text Only | Print | Product List | Glossary Off
Versions: 1 2 3 4 5 6 7 8 9 10 11 12 13 14 15 16 17 18 19 20 21 22 23 24 25 26 27 28 29 30 31 32 33 34 35 36 37 38 39 40 41 42 43 44 45 46 47 48 49 50

000
ASUS43 KFSD 301102
RWRSD

WEATHER ROUNDUP FOR SOUTH DAKOTA
NATIONAL WEATHER SERVICE SIOUX FALLS SD
600 AM CDT TUE JUN 30 2015

NOTE: "FAIR" INDICATES FEW OR NO CLOUDS BELOW 12,000 FEET WITH NO
SIGNIFICANT WEATHER AND/OR OBSTRUCTIONS TO VISIBILITY.


SDZ001>005-009-010-012>017-301200-
NORTHWEST AND NORTH CENTRAL SOUTH DAKOTA

CITY           SKY/WX    TMP DP  RH WIND       PRES   REMARKS
BUFFALO          N/A     64  57  78 NW8       29.89S
FAITH            N/A     67  60  78 E9        29.92R
MOBRIDGE       CLOUDY    68  66  93 CALM      29.90R
$$

SDZ012>016-024>037-041>051-057-063-072>074-301200-
SOUTHWEST AND SOUTH CENTRAL SOUTH DAKOTA

CITY           SKY/WX    TMP DP  RH WIND       PRES   REMARKS
RAPID CTY ARPT MOCLDY    69  53  56 CALM      29.96S
PIERRE         CLOUDY    68  62  81 E13       29.92S
CUSTER         PTCLDY    62  51  67 W6        30.15S
ELLSWORTH AFB  MOCLDY    68  56  64 W7        29.95F
PHILIP         MOCLDY    67  62  84 W7        29.89F
PINE RIDGE     MOCLDY    61  55  81 CALM      30.01S
WINNER         FAIR      70  59  68 SE10      29.95S
$$

SDZ004>011-016>023-039-040-301200-
NORTHEAST SOUTH DAKOTA

CITY           SKY/WX    TMP DP  RH WIND       PRES   REMARKS
ABERDEEN       CLOUDY    65  62  90 CALM      29.96R
WATERTOWN      MOCLDY    62  59  90 E5        29.96R
BROOKINGS      PTCLDY    59  55  88 CALM      29.98R
SISSETON         N/A     60  58  92 N3        29.94R
$$

SDZ017-020-022-023-036>040-048>070-301200-
SOUTHEAST SOUTH DAKOTA

CITY           SKY/WX    TMP DP  RH WIND       PRES   REMARKS
SIOUX FALLS    CLOUDY    64  61  90 CALM      29.95R
HURON          CLOUDY    67  64  90 CALM      29.96R
CHAMBERLAIN    MOCLDY    68  63  82 E5        29.98R
MITCHELL       LGT RAIN  68  65  90 W7        29.98R
YANKTON        CLOUDY    66  63  88 NW5       29.94S
$$

ABBREVIATIONS USED IN REMARKS
   TC - TEMPERATURE IN CELSIUS
  WCI - WIND CHILL INDEX
   HX - HEAT INDEX
  VSB - VISIBILITY




USA.gov is the U.S. government's official web portal to all federal, state and local government web resources and services.